Location: Nairn
(57.5833°N, 3.8667°W)
Time: 23:10:40
(UTC+00:00)

Tiros 1 - Pass Details

Date: 28 November 2020
Orbit: 630 x 663 km, 48.4° (Epoch: 22 January)

Event Time Altitude Azimuth Distance (km) Brightness Sun altitude
Rises 18:06:53 0° 244° (WSW) 2,990 12.0 -18.4°
Reaches altitude 10° 18:09:30 10° 233° (SW) 2,075 10.7 -18.8°
Maximum altitude 18:13:31 27° 176° (S) 1,259 8.7 -19.3°
Enters shadow 18:15:22 21° 140° (SE) 1,466 8.7 -19.5°
Drops below altitude 10° 18:17:30 10° 119° (ESE) 2,061 - -19.8°
Sets 18:20:06 0° 107° (ESE) 2,966 - -20.2°
